TimeEDT,TemperatureF,Dew PointF,Humidity,Sea Level PressureIn,VisibilityMPH,Wind Direction,Wind SpeedMPH,Gust SpeedMPH,PrecipitationIn,Events,Conditions,WindDirDegrees,DateUTC
12:15 AM,57.0,45.1,64,30.43,10.0,West,3.5,-,N/A,Rain,Rain,270,2013-04-27 04:15:00
12:35 AM,53.2,49.8,88,30.43,10.0,Calm,Calm,-,N/A,Rain,Light Rain,0,2013-04-27 04:35:00
12:55 AM,52.9,49.1,87,30.41,10.0,Calm,Calm,-,N/A,,Overcast,0,2013-04-27 04:55:00
1:15 AM,53.8,47.8,80,30.41,10.0,NW,3.5,-,N/A,,Overcast,320,2013-04-27 05:15:00
1:35 AM,52.9,49.5,88,30.41,10.0,Calm,Calm,-,N/A,,Overcast,0,2013-04-27 05:35:00
1:55 AM,51.8,50.0,94,30.41,10.0,Calm,Calm,-,N/A,,Overcast,0,2013-04-27 05:55:00
2:15 AM,52.3,50.0,92,30.40,10.0,Calm,Calm,-,N/A,,Overcast,0,2013-04-27 06:15:00
2:35 AM,51.1,50.0,96,30.39,7.0,Calm,Calm,-,N/A,,Mostly Cloudy,0,2013-04-27 06:35:00
2:55 AM,51.1,50.4,97,30.38,10.0,Calm,Calm,-,N/A,,Scattered Clouds,0,2013-04-27 06:55:00
3:15 AM,51.1,49.3,94,30.38,7.0,Calm,Calm,-,N/A,,Clear,0,2013-04-27 07:15:00
3:35 AM,50.4,50.0,99,30.37,7.0,Calm,Calm,-,N/A,,Scattered Clouds,0,2013-04-27 07:35:00
3:55 AM,50.2,50.0,99,30.37,7.0,Calm,Calm,-,N/A,,Mostly Cloudy,0,2013-04-27 07:55:00
4:15 AM,50.7,50.2,98,30.37,7.0,Calm,Calm,-,N/A,,Overcast,0,2013-04-27 08:15:00
4:35 AM,51.3,50.9,99,30.37,10.0,Calm,Calm,-,N/A,,Overcast,0,2013-04-27 08:35:00
4:55 AM,51.8,50.9,97,30.38,10.0,Calm,Calm,-,N/A,,Overcast,0,2013-04-27 08:55:00
5:15 AM,50.7,49.8,97,30.37,10.0,Calm,Calm,-,N/A,,Overcast,0,2013-04-27 09:15:00
5:35 AM,51.1,50.5,98,30.37,10.0,Calm,Calm,-,N/A,,Overcast,0,2013-04-27 09:35:00
5:55 AM,52.0,50.0,93,30.37,10.0,Calm,Calm,-,N/A,,Overcast,0,2013-04-27 09:55:00
6:15 AM,52.0,50.5,95,30.37,10.0,Calm,Calm,-,N/A,,Overcast,0,2013-04-27 10:15:00
7:35 AM,52.3,50.5,94,30.38,10.0,Calm,Calm,-,N/A,,Overcast,0,2013-04-27 11:35:00
7:55 AM,51.8,50.9,97,30.38,10.0,Calm,Calm,-,N/A,,Overcast,0,2013-04-27 11:55:00
8:15 AM,52.2,50.7,95,30.40,10.0,Calm,Calm,-,N/A,,Overcast,0,2013-04-27 12:15:00
8:35 AM,52.7,50.5,92,30.40,10.0,Calm,Calm,-,N/A,,Overcast,0,2013-04-27 12:35:00
8:55 AM,53.2,51.1,92,30.40,10.0,Calm,Calm,-,N/A,,Overcast,0,2013-04-27 12:55:00
9:15 AM,53.8,50.4,88,30.40,10.0,Calm,Calm,-,N/A,,Overcast,0,2013-04-27 13:15:00
9:35 AM,54.1,51.3,90,30.39,10.0,Calm,Calm,-,N/A,,Overcast,0,2013-04-27 13:35:00
9:55 AM,54.5,51.1,88,30.39,10.0,Calm,Calm,-,N/A,,Overcast,0,2013-04-27 13:55:00
10:15 AM,55.4,50.9,85,30.40,10.0,Calm,Calm,-,N/A,,Overcast,0,2013-04-27 14:15:00
10:35 AM,56.1,50.7,82,30.40,10.0,Calm,Calm,-,N/A,Rain,Light Rain,0,2013-04-27 14:35:00
10:55 AM,56.5,49.8,78,30.40,10.0,Calm,Calm,-,N/A,,Overcast,0,2013-04-27 14:55:00
11:15 AM,57.9,49.3,73,30.39,10.0,Calm,Calm,-,N/A,,Mostly Cloudy,0,2013-04-27 15:15:00
11:35 AM,59.0,50.9,74,30.40,10.0,Calm,Calm,-,N/A,,Overcast,0,2013-04-27 15:35:00
11:55 AM,60.6,49.6,67,30.39,10.0,Calm,Calm,-,N/A,,Overcast,0,2013-04-27 15:55:00
12:15 PM,61.2,49.3,65,30.38,10.0,Calm,Calm,-,N/A,,Overcast,0,2013-04-27 16:15:00
12:35 PM,62.2,49.1,62,30.37,10.0,ENE,3.5,-,N/A,,Overcast,70,2013-04-27 16:35:00
12:55 PM,62.6,49.6,63,30.37,10.0,Calm,Calm,-,N/A,,Overcast,0,2013-04-27 16:55:00
1:15 PM,61.7,49.1,63,30.37,10.0,Calm,Calm,-,N/A,,Overcast,0,2013-04-27 17:15:00
1:35 PM,61.7,50.0,65,30.37,10.0,NNW,4.6,-,N/A,,Overcast,330,2013-04-27 17:35:00
1:55 PM,61.2,50.0,67,30.38,10.0,NW,3.5,-,N/A,,Overcast,320,2013-04-27 17:55:00
2:15 PM,60.8,49.5,66,30.38,10.0,NW,3.5,-,N/A,,Overcast,310,2013-04-27 18:15:00
2:35 PM,60.6,50.7,70,30.38,7.0,SW,4.6,-,N/A,,Drizzle,230,2013-04-27 18:35:00
2:55 PM,59.2,52.0,77,30.38,10.0,Calm,Calm,-,N/A,Rain,Light Rain,0,2013-04-27 18:55:00
3:15 PM,59.0,51.8,77,30.37,10.0,Calm,Calm,-,N/A,,Overcast,0,2013-04-27 19:15:00
3:35 PM,59.2,53.2,81,30.37,10.0,Calm,Calm,-,N/A,,Overcast,0,2013-04-27 19:35:00
3:55 PM,58.6,52.2,79,30.37,10.0,Calm,Calm,-,N/A,,Overcast,0,2013-04-27 19:55:00
4:15 PM,58.3,53.8,85,30.37,7.0,Calm,Calm,-,0.01,Rain,Light Rain,0,2013-04-27 20:15:00
4:35 PM,57.2,53.6,88,30.37,7.0,WSW,5.8,-,0.02,Rain,Light Rain,250,2013-04-27 20:35:00
4:55 PM,56.5,53.1,88,30.37,7.0,SW,3.5,-,0.02,Rain,Light Rain,230,2013-04-27 20:55:00
5:15 PM,55.8,53.8,93,30.35,5.0,Calm,Calm,-,0.02,Rain,Light Rain,0,2013-04-27 21:15:00
5:35 PM,55.8,54.5,96,30.33,5.0,Calm,Calm,-,0.03,Rain,Rain,0,2013-04-27 21:35:00
5:55 PM,55.8,54.7,96,30.33,7.0,Calm,Calm,-,0.03,,Light Drizzle,0,2013-04-27 21:55:00
6:15 PM,55.9,54.7,96,30.33,7.0,Calm,Calm,-,N/A,,Overcast,0,2013-04-27 22:15:00
6:35 PM,56.1,54.7,95,30.34,7.0,Calm,Calm,-,N/A,,Light Drizzle,0,2013-04-27 22:35:00
6:55 PM,55.6,54.5,96,30.34,5.0,WNW,3.5,-,N/A,Rain,Light Rain,290,2013-04-27 22:55:00
7:15 PM,55.4,54.1,96,30.34,7.0,Calm,Calm,-,N/A,,Drizzle,0,2013-04-27 23:15:00
7:35 PM,55.4,54.1,96,30.33,7.0,Calm,Calm,-,0.01,,Light Drizzle,0,2013-04-27 23:35:00
7:55 PM,54.9,54.1,97,30.33,4.0,Calm,Calm,-,0.02,Rain,Rain,0,2013-04-27 23:55:00
8:15 PM,54.7,54.5,99,30.33,4.0,Calm,Calm,-,N/A,,Drizzle,0,2013-04-28 00:15:00
8:35 PM,54.5,54.5,100,30.33,3.0,Calm,Calm,-,0.01,,Light Drizzle,0,2013-04-28 00:35:00
8:55 PM,54.5,54.5,100,30.32,4.0,Calm,Calm,-,0.01,,Light Drizzle,0,2013-04-28 00:55:00
9:15 PM,54.1,54.1,100,30.33,4.0,Calm,Calm,-,N/A,Rain,Light Rain,0,2013-04-28 01:15:00
9:35 PM,53.8,53.8,100,30.33,4.0,Calm,Calm,-,0.02,Rain,Light Rain,0,2013-04-28 01:35:00
9:55 PM,54.0,54.0,100,30.33,4.0,Calm,Calm,-,0.02,,Overcast,0,2013-04-28 01:55:00
10:15 PM,53.8,53.8,100,30.33,5.0,Calm,Calm,-,N/A,Rain,Light Rain,0,2013-04-28 02:15:00
10:35 PM,53.8,53.8,100,30.33,5.0,Calm,Calm,-,0.01,Rain,Light Rain,0,2013-04-28 02:35:00
10:55 PM,53.4,53.4,100,30.33,3.0,Calm,Calm,-,0.01,Rain,Rain,0,2013-04-28 02:55:00
11:15 PM,53.4,53.4,100,30.32,3.0,Calm,Calm,-,N/A,,Light Drizzle,0,2013-04-28 03:15:00
11:35 PM,53.2,53.2,100,30.31,4.0,Calm,Calm,-,0.01,Rain,Rain,0,2013-04-28 03:35:00
11:55 PM,53.2,53.2,100,30.30,4.0,Calm,Calm,-,0.02,Rain,Light Rain,0,2013-04-28 03:55:00